Home > Weather > Chisinau > Past weeks

Flag for Moldova Weather for the Past 2 Weeks in Chisinau, Moldova

Now
41 °F

Scattered clouds.


Feels Like: 33 °F
Forecast: 35 / 52 °F
Wind: 14 mph from South

Location: Chisinau International Airport

Current Time: Feb 9, 2016 at 1:06:17 PM

Latest Report: Feb 9, 2016 at 12:00 PM


Visibility: N/A

Pressure: 30.07 "Hg

Humidity: 81%

Dew point: 36 °F

Location of ChisinauLocation

Historic Weather in Chisinau — Graph

°F

Chisinau Temperature Yesterday

Maximum temperature yesterday: 43 °F (at 1:00 PM)
Minimum temperature yesterday: 28 °F (at 12:30 AM)
Average temperature yesterday: 35 °F

High & Low Weather Summary for the Past Weeks

 TemperatureHumidityPressure
High54 °F (Feb 3, 1:30 PM)100% (Jan 30, 6:00 PM)30.39 "Hg (Jan 30, 6:00 PM)
Low14 °F (Jan 26, 8:30 PM)48% (Feb 6, 2:30 PM)29.74 "Hg (Jan 31, 2:00 PM)
Average36 °F80%30.14 "Hg
* Reported Jan 25 12:00 Noon — Feb 9 12:00 Noon, Chisinau, Weather by CustomWeather, © 2016

Note: Actual official high and low records may vary slightly from our data, if they occured in-between our weather recording intervals... More about our weather records

Advertising

Chisinau Weather History for the Previous 24 Hours

 ConditionsComfort  
Time TempWeatherWind HumidityBarometerVisibility
12:00 PM
Tue, Feb 9
41 °FScattered clouds.14 mph81%30.07 "HgN/A
11:30 AM39 °FBroken clouds.16 mph81%30.07 "HgN/A
11:00 AM39 °FPartly sunny.15 mph81%30.09 "HgN/A
10:00 AM37 °FPartly sunny.14 mph87%30.09 "HgN/A
9:30 AM37 °FPartly sunny.14 mph87%30.09 "HgN/A
9:00 AM37 °FPartly sunny.14 mph87%30.09 "HgN/A
8:30 AM36 °FPartly sunny.9 mph93%30.09 "HgN/A
8:00 AM36 °FBroken clouds.13 mph93%30.09 "HgN/A
7:30 AM36 °FBroken clouds.14 mph87%30.09 "HgN/A
7:00 AM36 °FPartly cloudy.16 mph87%30.09 "HgN/A
6:30 AM36 °FPartly cloudy.15 mph87%30.09 "HgN/A
6:00 AM36 °FPassing clouds.15 mph87%30.09 "HgN/A
5:30 AM36 °FPassing clouds.16 mph87%30.09 "HgN/A
5:00 AM36 °FPassing clouds.15 mph87%30.09 "HgN/A
4:30 AM34 °FPartly cloudy.15 mph93%30.09 "HgN/A
4:00 AM34 °FPartly cloudy.13 mph93%30.12 "HgN/A
3:30 AM34 °FPartly cloudy.9 mph93%30.12 "HgN/A
3:00 AM34 °FPartly cloudy.10 mph93%30.12 "HgN/A
2:30 AM34 °FPartly cloudy.9 mph93%30.12 "HgN/A
2:00 AM34 °FPassing clouds.13 mph93%30.15 "HgN/A
1:30 AM34 °FPassing clouds.14 mph93%30.15 "HgN/A
1:00 AM36 °FPassing clouds.15 mph87%30.15 "HgN/A
12:30 AM34 °FPartly cloudy.14 mph93%30.18 "HgN/A
12:00 AM34 °FPassing clouds.14 mph87%30.18 "HgN/A
11:30 PM
Mon, Feb 8
36 °FPassing clouds.14 mph87%30.18 "HgN/A
11:00 PM34 °FClear.14 mph93%30.18 "Hg10 mi
10:30 PM34 °FClear.10 mph87%30.18 "Hg10 mi
10:00 PM34 °FClear.14 mph87%30.18 "Hg10 mi
9:30 PM34 °FClear.13 mph87%30.21 "Hg10 mi
9:00 PM34 °FClear.9 mph87%30.21 "Hg10 mi
8:30 PM36 °FClear.10 mph81%30.21 "Hg10 mi
8:00 PM36 °FClear.12 mph81%30.21 "Hg10 mi
7:30 PM36 °FClear.9 mph81%30.21 "Hg10 mi
7:00 PM36 °FPassing clouds.13 mph81%30.21 "HgN/A
6:30 PM37 °FPassing clouds.15 mph75%30.21 "HgN/A
6:00 PM37 °FPassing clouds.12 mph81%30.21 "HgN/A
5:30 PM39 °FPassing clouds.13 mph75%30.21 "HgN/A
5:00 PM39 °FScattered clouds.13 mph75%30.21 "HgN/A
4:30 PM41 °FScattered clouds.14 mph70%30.21 "HgN/A
4:00 PM41 °FScattered clouds.21 mph70%30.21 "HgN/A
3:30 PM43 °FPartly sunny.20 mph66%30.21 "HgN/A
3:00 PM43 °FPartly sunny.20 mph71%30.21 "HgN/A
2:30 PM41 °FPartly sunny.20 mph70%30.21 "HgN/A
2:00 PM41 °FPartly sunny.20 mph70%30.24 "HgN/A
1:30 PM41 °FPartly sunny.21 mph76%30.24 "HgN/A
1:00 PM43 °FPartly sunny.22 mph66%30.24 "HgN/A
Weather by CustomWeather, © 2016

See weather overviewHow to use our weather pages